Flag for Germany Weather past 2 weeks in Mülheim, North Rhine-Westphalia, Germany

Now
37 °F

Partly cloudy.


Feels Like: 30 °F
Forecast: 33 / 39 °F
Wind: 12 mph from South

Location: Koeln / Bonn

Current Time: Jan 29, 2015 at 6:00:55 PM

Latest Report: Jan 29, 2015 at 5:20 PM


Visibility: N/A

Pressure: 28.94 "Hg

Humidity: 87%

Dew point: 34 °F

Location of MülheimLocation

Historic Weather in Mülheim — Graph

°F

Mülheim temperature yesterday

Maximum temperature yesterday: 43 °F (at 11:20 AM)
Minimum temperature yesterday: 36 °F (at 2:50 AM)
Average temperature yesterday: 39 °F

Past Weeks' High & Low Weather Summary

 TemperatureHumidityPressure
High52 °F (Jan 15, 12:20 PM)100% (Jan 20, 4:20 AM)30.42 "Hg (Jan 20, 4:20 AM)
Low27 °F (Jan 19, 7:20 AM)57% (Jan 29, 1:50 PM)28.97 "Hg (Jan 29, 4:50 PM)
Average36 °F84%29.96 "Hg
* Reported Jan 14 4:20 PM — Jan 29 4:50 PM, Mülheim, Weather by CustomWeather, © 2014

Note: Actual official high and low records may vary slightly from our data, if they occured in-between our weather recording intervals... More about our weather records

Advertising

Mülheim weather history for previous 24 hours

 ConditionsComfort  
Time TempWeatherWind HumidityBarometerVisibility
4:50 PM
Jan 29
39 °FLight rain. Broken clouds.10 mph75%28.97 "HgN/A
4:20 PM39 °FLight rain. Broken clouds.16 mph75%29.00 "HgN/A
3:50 PM41 °FLight rain. Broken clouds.15 mph66%29.03 "HgN/A
3:20 PM41 °FScattered clouds.13 mph66%29.03 "HgN/A
2:50 PM41 °FScattered clouds.14 mph66%29.06 "HgN/A
2:20 PM41 °FScattered clouds.13 mph66%29.09 "HgN/A
1:50 PM45 °FScattered showers. Scattered clouds.13 mph57%29.12 "HgN/A
1:20 PM41 °FPartly sunny.14 mph66%29.15 "HgN/A
12:50 PM43 °FScattered clouds.20 mph66%29.18 "HgN/A
12:20 PM43 °FScattered clouds.20 mph61%29.18 "HgN/A
11:50 AM41 °FBroken clouds.12 mph70%29.21 "HgN/A
11:20 AM39 °FBroken clouds.15 mph75%29.24 "HgN/A
10:50 AM37 °FScattered showers. Broken clouds.10 mph81%29.27 "HgN/A
10:20 AM37 °FBroken clouds.12 mph81%29.27 "HgN/A
9:50 AM36 °FPartly sunny.13 mph87%29.30 "HgN/A
9:20 AM37 °FBroken clouds.9 mph75%29.30 "HgN/A
8:50 AM36 °FScattered clouds.13 mph81%29.33 "HgN/A
8:20 AM36 °FPartly sunny.10 mph81%29.33 "HgN/A
7:50 AM36 °FPassing clouds.13 mph81%29.33 "HgN/A
7:20 AM36 °FPassing clouds.12 mph75%29.36 "HgN/A
6:50 AM36 °FSprinkles. Passing clouds.10 mph75%29.36 "HgN/A
6:20 AM34 °FPassing clouds.9 mph81%29.39 "HgN/A
5:50 AM34 °FClear.10 mph81%29.39 "Hg10 mi
5:20 AM34 °FPassing clouds.10 mph81%29.39 "HgN/A
4:50 AM34 °FPassing clouds.9 mph75%29.42 "HgN/A
4:20 AM34 °FPassing clouds.9 mph81%29.45 "HgN/A
3:50 AM34 °FClear.10 mph81%29.45 "Hg10 mi
3:20 AM34 °FClear.10 mph81%29.47 "Hg10 mi
2:50 AM36 °FClear.12 mph75%29.47 "Hg10 mi
2:20 AM36 °FClear.14 mph75%29.47 "Hg10 mi
1:50 AM36 °FPassing clouds.10 mph75%29.47 "HgN/A
1:20 AM36 °FScattered showers. Passing clouds.10 mph81%29.47 "HgN/A
12:50 AM36 °FScattered showers. Passing clouds.8 mph81%29.47 "HgN/A
12:20 AM36 °FPassing clouds.14 mph87%29.47 "HgN/A
11:50 PM
Jan 28
37 °FSprinkles. Partly cloudy.16 mph81%29.50 "HgN/A
11:20 PM37 °FPassing clouds.13 mph81%29.47 "HgN/A
10:20 PM37 °FPassing clouds.13 mph87%29.50 "HgN/A
9:50 PM37 °FPassing clouds.13 mph87%29.50 "HgN/A
9:20 PM36 °FPassing clouds.14 mph93%29.50 "HgN/A
8:50 PM37 °FPartly cloudy.14 mph87%29.50 "HgN/A
8:20 PM37 °FLight rain. Mostly cloudy.10 mph87%29.50 "HgN/A
7:50 PM37 °FLight rain. Passing clouds.18 mph87%29.50 "HgN/A
7:20 PM39 °FRain. Mostly cloudy.29 mph87%29.47 "HgN/A
6:50 PM43 °FRain. Passing clouds.17 mph76%29.45 "HgN/A
6:20 PM43 °FPassing clouds.18 mph76%29.45 "HgN/A
Weather by CustomWeather, © 2014

See weather overviewHow to use our weather pages